Weather History for Cecil Field, FL

Change the Weather History Date:

Monday, March 11, 2013

  Actual Average (KJAX) Record (KJAX)
Temperature  
Mean Temperature 60 °F 61 °F  
Max Temperature 75 °F 73 °F 89 °F (1967)
Min Temperature 44 °F 49 °F 31 °F (1934)
Degree Days  
Heating Degree Days 6 6  
Month to date heating degree days 71  
Since 1 July heating degree days 1204  
Cooling Degree Days 0 2  
Month to date cooling degree days 14  
Year to date cooling degree days 43  
Growing Degree Days 10 (Base 50)    
Moisture  
Dew Point 52 °F    
Average Humidity 83    
Maximum Humidity 100    
Minimum Humidity 50    
Precipitation  
Precipitation 0.00 in 0.13 in 2.66 in (1944)
Month to date precipitation 1.51  
Year to date precipitation 8.00  
Snow  
Snow 0.00 in 0.00 in 0.00 in (2002)
Month to date snowfall 0.0  
Since 1 July snowfall T  
Snow Depth -    
Sea Level Pressure  
Sea Level Pressure 30.04 in    
Wind  
Wind Speed 2 mph (SSE)    
Max Wind Speed 14 mph    
Max Gust Speed 22 mph    
Visibility 8 miles    
Events Fog , Rain    
T = Trace of Precipitation, MM = Missing Value Source: NWS Daily Summary

Daily Weather History Graph

Daily Weather History Graph

Search for Another Location

Airport:

Trip Planner

Search our weather history database for the weather conditions in past years. The results will help you decide how hot, cold, wet, or windy it might be!

Date:

Astronomy

Mar. 11, 2013 Rise Set
Actual Time 7:41 AM EDT 7:33 PM EDT
Civil Twilight 7:17 AM EDT 7:57 PM EDT
Nautical Twilight 6:50 AM EDT 8:25 PM EDT
Astronomical Twilight 6:22 AM EDT 8:53 PM EDT
Moon 7:16 AM EDT (3/11) 7:39 PM EDT (3/11)
Length of Visible Light 12h 39m
Length of Day
11h 51m
Waning Crescent, 0% of the Moon is Illuminated
Mar 11
Waning Crescent
Mar 11
New
Mar 19
First Quarter
Mar 27
Full
Apr 3
Last Quarter

Hourly Weather History & Observations

Time (EDT) Temp. Dew Point Humidity Pressure Visibility Wind Dir Wind Speed Gust Speed Precip Events Conditions
12:15 AM 53.6 °F 51.8 °F 94% 30.15 in 10.0 mi Calm Calm - N/A   Clear
12:35 AM 53.6 °F 51.8 °F 94% 30.15 in 10.0 mi Calm Calm - N/A   Clear
12:55 AM 53.6 °F 51.8 °F 94% 30.14 in 10.0 mi Calm Calm - N/A   Clear
1:15 AM 50.0 °F 50.0 °F 100% 30.13 in 10.0 mi Calm Calm - N/A   Clear
1:35 AM 51.8 °F 50.0 °F 94% 30.13 in 10.0 mi Calm Calm - N/A   Clear
1:55 AM 48.2 °F 48.2 °F 100% 30.13 in 10.0 mi Calm Calm - N/A   Clear
2:15 AM 48.2 °F 48.2 °F 100% 30.13 in 9.0 mi Calm Calm - N/A   Clear
2:35 AM 48.2 °F 48.2 °F 100% 30.13 in 7.0 mi Calm Calm - N/A   Clear
2:55 AM 46.4 °F 46.4 °F 100% 30.12 in 9.0 mi Calm Calm - N/A   Clear
3:15 AM 46.4 °F 46.4 °F 100% 30.11 in 7.0 mi Calm Calm - N/A   Clear
3:35 AM 46.4 °F 46.4 °F 100% 30.10 in 10.0 mi Calm Calm - N/A   Clear
3:55 AM 48.2 °F 48.2 °F 100% 30.09 in 4.0 mi Calm Calm - N/A   Clear
4:15 AM 46.4 °F 46.4 °F 100% 30.08 in 7.0 mi Calm Calm - N/A   Clear
4:35 AM 46.4 °F 46.4 °F 100% 30.06 in 6.0 mi Calm Calm - N/A   Clear
4:55 AM 46.4 °F 46.4 °F 100% 30.06 in 5.0 mi Calm Calm - N/A   Clear
5:15 AM 46.4 °F 46.4 °F 100% 30.06 in 0.5 mi Calm Calm - N/A Fog Fog
5:35 AM 46.4 °F 46.4 °F 100% 30.06 in 1.2 mi Calm Calm - N/A   Clear
5:55 AM 46.4 °F 46.4 °F 100% 30.06 in 5.0 mi Calm Calm - N/A   Clear
6:15 AM 46.4 °F 46.4 °F 100% 30.06 in 0.8 mi Calm Calm - N/A   Mist
6:35 AM 46.4 °F 46.4 °F 100% 30.06 in 3.0 mi Calm Calm - N/A   Clear
6:50 AM 44.6 °F 44.6 °F 100% 30.06 in 5.0 mi Calm Calm - N/A   Clear
6:55 AM 44.6 °F 44.6 °F 100% 30.06 in 6.0 mi Calm Calm - N/A   Clear
7:15 AM 46.4 °F 46.4 °F 100% 30.06 in 4.0 mi Calm Calm - N/A   Clear
7:35 AM 44.6 °F 44.6 °F 100% 30.06 in 7.0 mi Calm Calm - N/A   Clear
7:50 AM 44.6 °F 44.6 °F 100% 30.06 in 10.0 mi Calm Calm - N/A   Clear
8:50 AM 50.0 °F 50.0 °F 100% 30.07 in 10.0 mi Calm Calm - N/A   Clear
9:50 AM 64.4 °F 57.2 °F 77% 30.07 in 10.0 mi SSE 9.2 mph - N/A   Clear
10:50 AM 68.0 °F 55.4 °F 64% 30.08 in 10.0 mi South 11.5 mph 18.4 mph N/A   Clear
11:50 AM 69.8 °F 55.4 °F 60% 30.09 in 10.0 mi South 11.5 mph 21.9 mph N/A   Scattered Clouds
12:50 PM 73.4 °F 55.4 °F 53% 30.06 in 10.0 mi South 13.8 mph 21.9 mph N/A   Mostly Cloudy
1:50 PM 75.2 °F 55.4 °F 50% 30.04 in 10.0 mi South 12.7 mph - N/A   Mostly Cloudy
2:50 PM 73.4 °F 55.4 °F 53% 29.99 in 10.0 mi SSE 9.2 mph - N/A   Mostly Cloudy
3:50 PM 75.2 °F 55.4 °F 50% 29.96 in 10.0 mi SSE 11.5 mph - N/A   Mostly Cloudy
4:50 PM 75.2 °F 55.4 °F 50% 29.94 in 10.0 mi South 5.8 mph - N/A   Mostly Cloudy
5:50 PM 75.2 °F 55.4 °F 50% 29.93 in 10.0 mi SSE 9.2 mph - N/A   Mostly Cloudy
6:50 PM 73.4 °F 57.2 °F 57% 29.92 in 10.0 mi SSE 8.1 mph - N/A   Clear
7:50 PM 68.0 °F 57.2 °F 68% 29.91 in 10.0 mi Calm Calm - N/A   Clear
8:15 PM 68.0 °F 57.2 °F 68% 29.91 in 10.0 mi ESE 4.6 mph - N/A   Partly Cloudy
8:35 PM 68.0 °F 57.2 °F 68% 29.92 in 10.0 mi ESE 3.5 mph - N/A   Partly Cloudy
8:55 PM 66.2 °F 57.2 °F 73% 29.92 in 10.0 mi Calm Calm - N/A   Clear
9:15 PM 66.2 °F 57.2 °F 73% 29.94 in 10.0 mi South 3.5 mph - N/A   Clear
9:35 PM 66.2 °F 57.2 °F 73% 29.95 in 10.0 mi Calm Calm - N/A   Clear
9:55 PM 66.2 °F 57.2 °F 73% 29.95 in 10.0 mi Calm Calm - N/A   Scattered Clouds
10:15 PM 66.2 °F 57.2 °F 73% 29.96 in 10.0 mi SE 3.5 mph - N/A   Scattered Clouds
10:35 PM 66.2 °F 57.2 °F 73% 29.96 in 10.0 mi SE 3.5 mph - N/A   Partly Cloudy
10:55 PM 66.2 °F 57.2 °F 73% 29.95 in 10.0 mi SE 3.5 mph - N/A Rain Light Rain
11:15 PM 66.2 °F 57.2 °F 73% 29.94 in 10.0 mi SE 5.8 mph - N/A   Partly Cloudy
11:55 PM 66.2 °F 57.2 °F 73% 29.93 in 10.0 mi SE 5.8 mph - N/A   Clear